Regional Weather Roundup
Issued by NWS Charleston, SC

Current Version | Previous Version | Text Only | Print | Product List | Glossary Off
Versions: 1 2 3 4 5 6 7 8 9 10 11 12 13 14 15 16 17 18 19 20 21 22 23 24 25 26 27 28 29 30 31 32 33 34 35 36 37 38 39 40 41 42 43 44 45 46 47 48 49 50

000
ASUS42 KCHS 240011
RWRCHS

REGIONAL WEATHER ROUNDUP
NATIONAL WEATHER SERVICE CHARLESTON SC
700 PM EST THU FEB 23 2017

NOTE: "FAIR" INDICATES FEW OR NO CLOUDS BELOW 12,000 FEET WITH NO
SIGNIFICANT WEATHER AND/OR OBSTRUCTIONS TO VISIBILITY.

NOT ALL STATIONS ARE QUALITY CONTROLLED. USE DATA WITH CAUTION...
ESPECIALLY DEWPOINT OBSERVATIONS.

SCZ027-030-031-034>040-042>050-240100-
...SOUTHEAST SOUTH CAROLINA...

CITY           SKY/WX    TMP DP  RH WIND       PRES   REMARKS
N CHARLESTON   PTCLDY    68  59  73 E8        29.85R
6HR MIN TEMP:  68; 6HR MAX TEMP:  79;

WATERFRONT PRK   N/A     67  62  84 NE10      29.83R
MOUNT PLEASANT FAIR      66  61  82 CALM      29.85S
JOHNS ISLAND   FAIR      66  61  82 NE8       29.84S
PINOPOLIS        N/A     68  61  77 VRB3      29.76S
MONCKS CORNER  FAIR      66  57  72 E3        29.85R
SUMMERVILLE    FAIR      68  59  73 CALM      29.86R
BEAUFORT MCAS  PTCLDY    68  63  84 NE6       29.84R
6HR MIN TEMP:  68; 6HR MAX TEMP:  77; 6HR PCP: TRACE;

BEAUFORT ARPT  FAIR      66  61  82 E9        29.83R
HILTON HEAD IS NOT AVBL
WALTERBORO     PTCLDY    68  57  68 E3        29.86R
ALLENDALE      MOCLDY    72  57  60 CALM      29.83R

...SOUTHERN MIDLANDS AND PEE DEE...

CITY           SKY/WX    TMP DP  RH WIND       PRES   REMARKS
GEORGETOWN     FAIR      61  59  94 NE8       29.88R
KINGSTREE      FAIR      64  55  72 E3        29.87R
ORANGEBURG     CLEAR     69  56  62 CALM      29.85R
6HR MIN TEMP:  69; 6HR MAX TEMP:  77;

BARNWELL       MOCLDY    70  57  64 CALM      29.84R
AIKEN          FAIR      61  52  72 E3        29.88R
MANNING        FAIR      63  55  77 MISG      29.87R
COLUMBIA       PTCLDY    72  52  49 NE3       29.84R
6HR MIN TEMP:  72; 6HR MAX TEMP:  78;

SUMTER         MOCLDY    70  56  61 E7        29.84R
6HR MIN TEMP:  70; 6HR MAX TEMP:  79;

FLORENCE       CLEAR     67  56  67 SE6       29.88R
6HR MIN TEMP:  67; 6HR MAX TEMP:  77;

MYRTLE BEACH   MOCLDY    64  57  77 E8        29.89R
N MYRTLE BEACH PTCLDY    66  59  78 E8        29.87R
6HR MIN TEMP:  66; 6HR MAX TEMP:  74;


$$

GAZ063-065-086>088-099>101-113>116-118-119-134>141-150-240100-
...SOUTHEAST GEORGIA...

CITY           SKY/WX    TMP DP  RH WIND       PRES   REMARKS
SAVANNAH ARPT  PTCLDY    67  59  75 NE6       29.84R
6HR MIN TEMP:  67; 6HR MAX TEMP:  79;

HUNTER AAF     CLEAR     67  65  91 NE3       29.80R
6HR MIN TEMP:  67; 6HR MAX TEMP:  76;

FORT STEWART   CLEAR     67  59  75 CALM      29.81R
6HR MIN TEMP:  67; 6HR MAX TEMP:  77; 6HR PCP:  0.01;

STATESBORO     MOCLDY    70  63  77 CALM      29.84R
SYLVANIA       PTCLDY   N/A N/A N/A CALM      29.84S
CLAXTON        FAIR     N/A N/A N/A CALM      29.83R

...CSRA...CENTRAL AND FAR SOUTHEAST GEORGIA...

CITY           SKY/WX    TMP DP  RH WIND       PRES   REMARKS
THOMSON        CLEAR     67  58  72 CALM      29.88R
AUGUSTA-BUSH   CLEAR     66  55  67 CALM      29.83R
6HR MIN TEMP:  66; 6HR MAX TEMP:  81;

AUGUSTA-DANIEL CLEAR     73  50  44 E5        29.84R
SWAINSBORO     FAIR      68  57  68 CALM      29.83R
VIDALIA        PTCLDY    70  63  78 E6        29.82S
EASTMAN        FAIR      71  48  42 CALM      29.84R
HAZLEHURST     FAIR      72  63  72 E7        29.81R
ALMA           CLEAR     67  62  84 E5        29.80R
6HR MIN TEMP:  67; 6HR MAX TEMP:  79; 6HR PCP: TRACE;

WAYCROSS       CLEAR     72  66  81 E6        29.80S
JESUP          FAIR      70  59  68 E5        29.82R
BAXLEY         FAIR      70  64  83 E5        29.81S
BRUNSWICK      CLEAR     68  64  88 N7        29.82R
SAINT SIMONS   CLEAR     66  61  84 N13       29.80R
6HR MIN TEMP:  66; 6HR MAX TEMP:  74;


$$

SCZ027-028-034-036>038-045-046-048>050-GAZ119-141-240100-
...LAKE AND SUPPLEMENTAL COASTAL OBSERVATIONS...

STATION/POSITION TIME  TEMP    WIND        PRES    WAVE   SWELL
                       AIR SEA DIR/SP/G            HT/PER HT/PER/DIR
                 (UTC) (F)     (DEG/KT/KT) (MB)    (FT/S) (FT/S/D)
WINYAH BAY       NOT AVBL
LAKE MURRAY      2320   70        CALM     1010.2
ACE BASIN NERRS  2245   71      60/  4     1009.0
FORT PULASKI     2348   64 62   70/ 12/ 15 1010.2R
SAPELO ISLAND    2300   67      40/ 10     1009.0

$$

ANZ835-935-AMZ111-154-330-350-352-354-370-450-454-472-240100-
...C-MAN AND BUOY OBSERVATIONS...

STATION/POSITION TIME  TEMP    WIND        PRES    WAVE   SWELL
                       AIR SEA DIR/SP/G            HT/PER HT/PER/DIR
                 (UTC) (F)     (DEG/KT/KT) (MB)    (FT/S) (FT/S/D)
BUOY 41004       2350   71 70   80/ 12/ 16 1009.4R   9/ 8   8/130/ 8
BUOY 41008       2250   65 63   30/ 14/ 16 1007.9    7/ 8   5/130/ 8
FOLLY BEACH CMAN 2300   63      50/ 13/ 14 1010.9R
CAPERS NEARSHORE 2308   62 60   60/ 10/ 16 1010.1R
FRIPP NEARSHORE  2308   63 61   50/ 12/ 16 1009.7R


STATION/POSITION TIME  TEMP    WIND        PRES    WAVE   SWELL
                       AIR SEA DIR/SP/G            HT/PER HT/PER/DIR
                 (UTC) (F)     (DEG/KT/KT) (MB)    (FT/S) (FT/S/D)
5E ST. MARYS GA  2330      63                N/A     7/ 9   2/100/11
FRYING PAN BUOY  2350   71 71   90/ 16/ 19 1010.6R   7/ 8   5/140/ 8
BUOY 41025       2350   69 74  150/ 16/ 19 1013.1R   5/ 6   3/ 60/11
CAPE LOOKOUT NC  2300   65     120/ 10/ 10 1012.0R
BUOY 41002       2350   69 70   90/ 23/ 27 1009.8S   9/ 8   5/ 70/12
BUOY 41010       NOT AVBL
ST AUGUSTINE FL  0000   66 67   10/ 21/ 23 1007.6R


$$




USA.gov is the U.S. government's official web portal to all federal, state and local government web resources and services.